Location: Bacea
(45.9500°N, 22.6667°E)
Time: 10:07:54
(UTC+00:00)

Cosmos 1626 Rocket - Pass Details

Date: 16 October 2021
Orbit: 603 x 630 km, 82.5° (Epoch: 07 December)

Event Time Altitude Azimuth Distance (km) Brightness Sun altitude
Rises 17:44:37 0° 351° (N) 2,877 7.2 -22.1°
Reaches altitude 10° 17:46:51 10° 353° (N) 1,966 6.3 -22.5°
Enters shadow 17:51:08 80° 63° (ENE) 619 3.3 -23.2°
